HSPRA TNCS-TFFJ

Flight info

Callsign HSPRA
Flight time 0h 14m
Altitude 3000
Route PJM
Aircraft C172/L-SFG/C

Departure

Time 2026-04-24 11:43
Airport Juancho E. Yrausquin Airport (TNCS)

Arrival

Time 2026-04-24 11:57
Airport St. Jean Airport (TFFJ)
Time Latitude Longitude Altitude Speed Heading
2026-04-24 11:29 17.64451 -63.22023 126 ft 0 kts 27°
2026-04-24 11:35 17.64479 -63.22032 127 ft 4 kts 338°
2026-04-24 11:35 17.64488 -63.22032 128 ft 0 kts 11°
2026-04-24 11:35 17.64522 -63.22023 129 ft 7 kts 342°
2026-04-24 11:36 17.64521 -63.22029 128 ft 7 kts 102°
2026-04-24 11:36 17.64502 -63.21970 123 ft 9 kts 117°
2026-04-24 11:36 17.64473 -63.21908 120 ft 7 kts 93°
2026-04-24 11:36 17.64486 -63.21916 119 ft 2 kts 285°
2026-04-24 11:37 17.64530 -63.22030 127 ft 39 kts 291°
2026-04-24 11:37 17.64547 -63.22263 183 ft 16 kts 120°
2026-04-24 11:37 17.64452 -63.22023 126 ft 0 kts 26°
2026-04-24 11:38 17.64451 -63.22023 126 ft 0 kts 26°
2026-04-24 11:40 17.64473 -63.22028 126 ft 7 kts 328°
2026-04-24 11:41 17.64519 -63.22002 127 ft 14 kts 99°
2026-04-24 11:41 17.64481 -63.21910 120 ft 12 kts 123°
2026-04-24 11:41 17.64485 -63.21907 120 ft 4 kts 281°
2026-04-24 11:41 17.64520 -63.21998 127 ft 35 kts 293°
2026-04-24 11:42 17.64652 -63.22342 152 ft 62 kts 303°
2026-04-24 11:42 17.64819 -63.22823 277 ft 73 kts 301°
2026-04-24 11:42 17.65230 -63.23087 416 ft 76 kts 11°
2026-04-24 11:42 17.65517 -63.22678 616 ft 82 kts 80°
2026-04-24 11:43 17.65730 -63.22080 729 ft 91 kts 49°
2026-04-24 11:43 17.66170 -63.21572 884 ft 96 kts 41°
2026-04-24 11:43 17.66764 -63.21294 1049 ft 100 kts
2026-04-24 11:43 17.67370 -63.21010 1192 ft 99 kts 46°
2026-04-24 11:44 17.67670 -63.20358 1345 ft 100 kts 68°
2026-04-24 11:44 17.67784 -63.19630 1495 ft 102 kts 79°
2026-04-24 11:44 17.67792 -63.18878 1639 ft 104 kts 85°
2026-04-24 11:44 17.68032 -63.18203 1782 ft 100 kts 62°
2026-04-24 11:45 17.68435 -63.17614 1897 ft 101 kts 44°
2026-04-24 11:45 17.68951 -63.17127 2033 ft 101 kts 45°
2026-04-24 11:45 17.69381 -63.16576 2260 ft 94 kts 54°
2026-04-24 11:45 17.69728 -63.15945 2244 ft 109 kts 58°
2026-04-24 11:46 17.70060 -63.15251 2373 ft 105 kts 62°
2026-04-24 11:46 17.70376 -63.14566 2495 ft 104 kts 62°
2026-04-24 11:46 17.70681 -63.13902 2622 ft 102 kts 62°
2026-04-24 11:46 17.71007 -63.13236 2735 ft 104 kts 61°
2026-04-24 11:47 17.71377 -63.12586 2853 ft 104 kts 60°
2026-04-24 11:47 17.71748 -63.11939 2977 ft 104 kts 56°
2026-04-24 11:47 17.72199 -63.11321 3016 ft 112 kts 54°
2026-04-24 11:47 17.72691 -63.10658 3018 ft 117 kts 53°
2026-04-24 11:48 17.73198 -63.09979 3016 ft 119 kts 53°
2026-04-24 11:48 17.73712 -63.09291 3014 ft 120 kts 53°
2026-04-24 11:48 17.74229 -63.08599 3012 ft 121 kts 53°
2026-04-24 11:48 17.74748 -63.07906 3010 ft 121 kts 53°
2026-04-24 11:49 17.75273 -63.07207 3007 ft 122 kts 53°
2026-04-24 11:49 17.75797 -63.06511 3005 ft 122 kts 53°
2026-04-24 11:49 17.76321 -63.05813 3010 ft 122 kts 53°
2026-04-24 11:49 17.76848 -63.05114 3008 ft 122 kts 53°
2026-04-24 11:50 17.77371 -63.04418 3010 ft 121 kts 53°
2026-04-24 11:50 17.77896 -63.03724 3007 ft 121 kts 53°
2026-04-24 11:50 17.78412 -63.03043 3010 ft 120 kts 53°
2026-04-24 11:50 17.78940 -63.02350 3009 ft 122 kts 53°
2026-04-24 11:51 17.79468 -63.01656 3008 ft 122 kts 53°
2026-04-24 11:51 17.80039 -63.00966 2803 ft 134 kts 45°
2026-04-24 11:51 17.80783 -63.00333 2527 ft 138 kts 39°
2026-04-24 11:51 17.81569 -62.99754 2298 ft 137 kts 35°
2026-04-24 11:52 17.82354 -62.99184 2054 ft 138 kts 39°
2026-04-24 11:52 17.83044 -62.98491 1873 ft 134 kts 50°
2026-04-24 11:52 17.83672 -62.97789 1754 ft 131 kts 45°
2026-04-24 11:52 17.84315 -62.97106 1631 ft 132 kts 46°
2026-04-24 11:53 17.84956 -62.96422 1506 ft 131 kts 46°
2026-04-24 11:53 17.85597 -62.95737 1378 ft 132 kts 46°
2026-04-24 11:53 17.86238 -62.95050 1247 ft 132 kts 47°
2026-04-24 11:53 17.86880 -62.94363 1117 ft 132 kts 46°
2026-04-24 11:54 17.87511 -62.93689 1020 ft 130 kts 47°
2026-04-24 11:54 17.88071 -62.92937 875 ft 131 kts 57°
2026-04-24 11:54 17.88513 -62.92105 744 ft 130 kts 67°
2026-04-24 11:54 17.88788 -62.91223 706 ft 124 kts 76°
2026-04-24 11:55 17.88975 -62.90380 659 ft 116 kts 79°
2026-04-24 11:55 17.89131 -62.89592 696 ft 102 kts 78°
2026-04-24 11:55 17.89329 -62.88883 688 ft 101 kts 68°
2026-04-24 11:55 17.89616 -62.88274 674 ft 85 kts 66°
2026-04-24 11:56 17.89845 -62.87755 599 ft 79 kts 69°
2026-04-24 11:56 17.90066 -62.87213 497 ft 81 kts 69°
2026-04-24 11:56 17.90255 -62.86678 465 ft 75 kts 76°
2026-04-24 11:56 17.90365 -62.86132 359 ft 73 kts 85°
2026-04-24 11:57 17.90401 -62.85596 289 ft 76 kts 90°
2026-04-24 11:57 17.90431 -62.85048 214 ft 77 kts 91°
2026-04-24 11:57 17.90438 -62.84508 39 ft 64 kts 92°
2026-04-24 11:57 17.90442 -62.84189 20 ft 27 kts 92°
2026-04-24 11:58 17.90462 -62.84068 11 ft 6 kts 75°
2026-04-24 11:58 17.90461 -62.84061 10 ft 0 kts 122°
2026-04-24 11:59 17.90448 -62.84084 12 ft 8 kts 269°
2026-04-24 11:59 17.90442 -62.84313 29 ft 57 kts 269°
2026-04-24 11:59 17.90402 -62.84796 197 ft 52 kts 230°